GW2085 Weather Reports


Display with metric or nautical units.
time (UTC)temp
F
wind
direction
speed
MPH
gust
MPH
rain 1hr
in
rain 24hr
in
rain mn
in
humidity
%
barometer
mb
20260509031555 63 262 1.0 3.0 0.00 0.00 0.00 77 1014.1
20260509030056 65 274 1.0 3.0 0.00 0.00 0.00 75 1013.9
20260509024558 66 0 0.0 3.0 0.00 0.00 0.00 73 1013.7
20260509023053 67 233 0.0 3.0 0.00 0.00 0.00 71 1013.6
20260509021551 68 255 0.0 2.0 0.00 0.00 0.00 69 1013.5
20260509020057 70 271 0.0 3.0 0.00 0.00 0.00 67 1013.4
20260509014550 71 79 1.0 4.0 0.00 0.00 0.00 65 1013.3
20260509013055 72 215 1.0 3.0 0.00 0.00 0.00 62 1013.4
20260509011548 73 0 2.0 6.0 0.00 0.00 0.00 62 1013.4
20260509010050 73 238 1.0 5.0 0.00 0.00 0.00 61 1013.2
20260509004555 75 282 0.0 4.0 0.00 0.00 0.00 59 1013.2
20260509003051 75 0 2.0 5.0 0.00 0.00 0.00 58 1013.2
20260509001547 75 190 2.0 5.0 0.00 0.00 0.00 59 1013.4
20260509000049 75 277 1.0 5.0 0.00 0.00 0.00 59 1013.4
20260508234554 75 0 2.0 7.0 0.00 0.00 0.00 58 1013.5
20260508233054 76 194 3.0 6.0 0.00 0.00 0.00 57 1013.5
20260508231548 76 75 2.0 8.0 0.00 0.00 0.00 58 1013.5
20260508230051 78 274 2.0 6.0 0.00 0.00 0.00 55 1013.5
20260508224557 77 271 3.0 8.0 0.00 0.00 0.00 56 1013.5
20260508223054 79 21 2.0 6.0 0.00 0.00 0.00 55 1013.6
20260508221558 79 332 3.0 8.0 0.00 0.00 0.00 54 1013.7
20260508220052 80 263 2.0 9.0 0.00 0.00 0.00 52 1013.9
20260508214550 80 285 3.0 9.0 0.00 0.00 0.00 51 1013.8
20260508213051 81 255 4.0 11.0 0.00 0.00 0.00 50 1013.9
20260508211552 83 244 2.0 6.0 0.00 0.00 0.00 50 1013.9
20260508210053 83 188 2.0 6.0 0.00 0.00 0.00 49 1013.8
20260508204554 82 173 2.0 6.0 0.00 0.00 0.00 48 1013.9
20260508203101 82 145 1.0 4.0 0.00 0.00 0.00 48 1014.0
20260508201603 82 243 1.0 5.0 0.00 0.00 0.00 47 1014.2
20260508200055 80 81 4.0 8.0 0.00 0.00 0.00 50 1014.3
20260508194556 79 134 1.0 5.0 0.00 0.00 0.00 50 1014.9
20260508193054 77 238 2.0 4.0 0.00 0.00 0.00 55 1015.0
20260508191554 76 293 2.0 5.0 0.00 0.00 0.00 57 1015.1
20260508190050 74 285 1.0 4.0 0.00 0.00 0.00 62 1015.2
20260508184550 72 46 1.0 4.0 0.00 0.00 0.00 63 1015.4
20260508183051 71 148 1.0 4.0 0.00 0.00 0.00 66 1015.7
20260508181557 69 289 2.0 4.0 0.00 0.00 0.00 70 1015.9
20260508180052 68 346 1.0 5.0 0.00 0.00 0.00 72 1016.1
20260508174604 66 13 2.0 6.0 0.00 0.00 0.00 75 1016.2
20260508173053 64 203 2.0 4.0 0.00 0.00 0.00 78 1016.2
20260508171549 63 300 1.0 3.0 0.00 0.00 0.00 80 1016.2
20260508170048 62 234 0.0 2.0 0.00 0.00 0.00 82 1016.3
20260508164548 61 113 0.0 2.0 0.00 0.00 0.00 84 1016.3
20260508163054 60 0 0.0 1.0 0.00 0.00 0.00 85 1016.3
20260508161551 60 0 0.0 3.0 0.00 0.00 0.00 86 1016.5
20260508160052 59 292 0.0 2.0 0.00 0.00 0.00 87 1016.5
20260508154551 59 43 0.0 1.0 0.00 0.00 0.00 87 1016.4
20260508153053 59 110 0.0 3.0 0.00 0.00 0.00 88 1016.4
20260508151548 58 28 1.0 3.0 0.00 0.00 0.00 88 1016.6
20260508150052 58 36 1.0 2.0 0.00 0.00 0.00 88 1016.5
20260508144553 58 0 0.0 1.0 0.00 0.00 0.00 89 1016.4
20260508143049 58 22 0.0 1.0 0.00 0.00 0.00 89 1016.3
20260508141613 58 0 1.0 2.0 0.00 0.00 0.00 89 1016.3
20260508140051 58 72 0.0 3.0 0.00 0.00 0.00 89 1016.2
20260508134608 58 56 0.0 2.0 0.00 0.00 0.00 89 1016.1
20260508133057 58 50 1.0 2.0 0.00 0.00 0.00 89 1016.0
20260508131554 58 47 0.0 2.0 0.00 0.00 0.00 88 1015.9
20260508130053 58 0 0.0 0.0 0.00 0.00 0.00 88 1015.8
20260508124559 58 0 0.0 0.0 0.00 0.00 0.00 88 1015.6
20260508123055 58 221 0.0 1.0 0.00 0.00 0.00 88 1015.6
20260508121601 58 0 0.0 1.0 0.00 0.00 0.00 88 1015.6
20260508120053 58 0 0.0 1.0 0.00 0.00 0.00 88 1015.3
20260508114554 58 25 2.0 4.0 0.00 0.00 0.00 88 1015.3
20260508113105 58 18 0.0 5.0 0.00 0.00 0.00 88 1015.2
20260508111557 58 0 0.0 2.0 0.00 0.00 0.00 88 1015.3
20260508110058 58 0 0.0 2.0 0.00 0.00 0.00 88 1015.2
20260508104555 58 0 0.0 2.0 0.00 0.00 0.00 88 1015.4
20260508103055 58 0 0.0 0.0 0.00 0.00 0.00 87 1015.4
20260508101553 58 31 0.0 2.0 0.00 0.00 0.00 87 1015.4
20260508100053 58 120 0.0 2.0 0.00 0.00 0.00 87 1015.4
20260508094552 58 0 0.0 1.0 0.00 0.00 0.00 87 1015.3
20260508093056 58 32 0.0 1.0 0.00 0.00 0.00 87 1015.4
20260508091556 58 0 0.0 0.0 0.00 0.00 0.00 87 1015.3
20260508090056 58 0 0.0 1.0 0.00 0.00 0.00 87 1015.4
20260508084554 58 264 0.0 1.0 0.00 0.00 0.00 87 1015.5
20260508083109 59 36 0.0 1.0 0.00 0.00 0.00 86 1015.6
20260508081603 59 51 0.0 2.0 0.00 0.00 0.00 86 1015.8
20260508080053 59 56 0.0 1.0 0.00 0.00 0.00 86 1015.9
20260508074552 59 0 0.0 1.0 0.00 0.00 0.00 86 1015.9
20260508073055 59 0 0.0 2.0 0.00 0.00 0.00 86 1016.0
20260508071557 59 64 0.0 1.0 0.00 0.00 0.00 86 1016.2
20260508070057 59 245 0.0 1.0 0.00 0.00 0.00 86 1016.4
20260508064556 59 0 0.0 1.0 0.00 0.00 0.00 86 1016.5
20260508063052 59 0 0.0 2.0 0.00 0.00 0.00 86 1016.5
20260508061556 59 245 0.0 1.0 0.00 0.00 0.00 86 1016.5
20260508060055 59 274 0.0 1.0 0.00 0.00 0.00 86 1016.4
20260508054554 58 0 0.0 1.0 0.00 0.00 0.00 86 1016.4
20260508053053 58 0 0.0 1.0 0.00 0.00 0.00 86 1016.2
20260508051552 58 0 0.0 0.0 0.00 0.00 0.00 85 1016.2
20260508050053 58 0 0.0 2.0 0.00 0.00 0.00 85 1016.2
20260508044555 59 0 0.0 1.0 0.00 0.00 0.00 84 1016.2
20260508043107 59 0 0.0 2.0 0.00 0.00 0.00 83 1016.0
20260508041554 60 263 0.0 1.0 0.00 0.00 0.00 82 1016.1
20260508040054 60 231 0.0 2.0 0.00 0.00 0.00 81 1016.0
20260508034554 61 0 0.0 1.0 0.00 0.00 0.00 79 1015.5
20260508033049 62 0 0.0 1.0 0.00 0.00 0.00 78 1015.3